Location: ????????
(41.2031°N, 22.5756°E)
Time: 04:10:30
(UTC+00:00)

X-37B - Pass Details

Date: 01 December 2020
Orbit: 384 x 390 km, 45.0° (Epoch: 02 January)

Event Time Altitude Azimuth Distance (km) Brightness Sun altitude
Rises 17:26:02 0° 280° (W) 2,265 5.6 -26.6°
Reaches altitude 10° 17:28:11 10° 289° (WNW) 1,412 4.2 -27.0°
Enters shadow 17:29:00 16° 295° (WNW) 1,109 3.5 -27.1°
